Hanford, WA
on Wednesday, January 30, 2013

Wednesday
Previous Day Next Day
Daily Summary
 ActualAverage (KMWH)Record (KMWH)
Temperature
Mean Temperature °F 32°F  
Max Temperature 56°F 39°F 55°F (2013)
Min Temperature 42°F 25°F -4°F (1980)
Degree Days
Heating Degree Days 16 33  
Month to date heating degree days 1054  
Since 1 July heating degree days 3641  
Cooling Degree Days 0 0  
Month to date cooling degree days 0  
Year to date cooling degree days 0  
Moisture
Dew Point 35°F   
Average Humidity 61    
Maximum Humidity 70    
Minimum Humidity 46    
Precipitation
Precipitation 0.00 in 0.02 in 0.35 in (1987)
Month to date precipitation 1.12  
Year to date precipitation 1.12  
Wind
Wind Speed 11 mph   
Max Wind Speed 16 mph   
Max Gust Speed 18 mph   
Visibility 15 miles   
Events     

Key: T is trace of precipitation, MM is missing value
Source: NWS Daily Summary
Time(PST)TemperatureDew PointHumidity Pressure Visibility Wind DirectionWind SpeedGust SpeedPrecipitationEvents Conditions
12:50 AM 45.0°F 35.1°F 68% 30.19 in 15.0 miles West 12.7 mph - N/A   Mostly Cloudy
1:50 AM 45.0°F 35.1°F 68% 30.19 in 15.0 miles WSW 13.8 mph - N/A   Mostly Cloudy
2:50 AM 45.1°F 34.5°F 66% 30.20 in 15.0 miles West 5.8 mph - N/A   Mostly Cloudy
3:50 AM 43.3°F 33.6°F 69% 30.18 in 15.0 miles West 4.6 mph - N/A   Mostly Cloudy
4:50 AM 43.5°F 32.9°F 66% 30.16 in 15.0 miles West 15.0 mph - N/A   Scattered Clouds
5:50 AM 44.2°F 32.7°F 64% 30.17 in 15.0 miles WSW 13.8 mph - N/A   Scattered Clouds
6:50 AM 42.3°F 33.1°F 70% 30.17 in 15.0 miles SW 8.1 mph - N/A   Mostly Cloudy
7:50 AM 45.7°F 34.2°F 64% 30.16 in 15.0 miles SW 13.8 mph - N/A   Mostly Cloudy
8:50 AM 46.6°F 35.1°F 64% 30.16 in 15.0 miles WSW 15.0 mph - N/A   Mostly Cloudy
9:50 AM 50.4°F 35.2°F 56% 30.20 in 15.0 miles WSW 16.1 mph - N/A   Mostly Cloudy
10:50 AM 52.5°F 35.6°F 53% 30.20 in 15.0 miles WSW 11.5 mph - N/A   Mostly Cloudy
11:50 AM 52.7°F 35.4°F 52% 30.20 in 15.0 miles WSW 10.4 mph - N/A   Mostly Cloudy
12:50 PM 54.7°F 36.7°F 51% 30.19 in 15.0 miles West 11.5 mph - N/A   Mostly Cloudy
1:50 PM 56.8°F 36.0°F 46% 30.19 in 15.0 miles WSW 12.7 mph - N/A   Mostly Cloudy
2:50 PM 55.8°F 36.1°F 48% 30.21 in 15.0 miles SW 12.7 mph 18.4 mph N/A   Mostly Cloudy
3:50 PM 55.6°F 36.9°F 49% 30.21 in 15.0 miles West 6.9 mph - N/A   Mostly Cloudy
4:50 PM 49.3°F 36.0°F 60% 30.22 in 15.0 miles WSW 8.1 mph - N/A   Mostly Cloudy
5:50 PM 46.6°F 35.4°F 65% 30.22 in 15.0 miles NNW 5.8 mph - N/A   Mostly Cloudy
6:50 PM 46.2°F 35.2°F 66% 30.24 in 15.0 miles West 11.5 mph - N/A   Mostly Cloudy
9:50 PM 47.5°F 36.1°F 65% 30.25 in 15.0 miles West 11.5 mph - N/A   Mostly Cloudy
10:50 PM 47.5°F 36.1°F 65% 30.27 in 15.0 miles West 11.5 mph - N/A   Overcast
11:50 PM 45.5°F 36.0°F 69% 30.27 in 15.0 miles West 9.2 mph - N/A   Overcast
Moon Phase
Jan. 30 Feb. 03 Feb. 10 Feb. 17 Feb. 25
Sunrise:07:24 AM (PST) Moon Rise:09:22 PM (PST)1/30
Sunset:04:59 PM (PST) Moon Set:08:38 AM (PST)1/30

Copyright © 2014 The Weather Underground, Inc.